POLAR SCOUT KODIAK (43764 NORAD) Tracking and Keplerian Element Data

This shows tracking and keplerian element data for the satellite.

Feedback or suggestion? Click here.




ElementValue
Catalog43764
NamePOLAR SCOUT KODIAK
Epoch Orbit33815
Epoch Day35.15373588
Epoch Year2025
RAAN102.7464
Inclination97.4865
Eccentricity0.0011716
Argument of Perigee215.1281
Mean Anonmoly144.9184
Mean Motion15.23803452
Decay Rate0.00026636
L11 43764U 18099G 25035.15373588 .00026636 00000+0 11041-2 0 9997
L22 43764 97.4865 102.7464 0011716 215.1281 144.9184 15.23803452338159



Live tracking and technical data element details for POLAR SCOUT KODIAK (NORAD 43764). POLAR SCOUT KODIAK can be tracked NOW for your location showing map with azimuth and elevation plus other details from your city location.







IsCatalogInMostPopularTable: catalog: 43764, numindb: 295
Update: records affected: 1



GetName: 43764 POLAR SCOUT KODIAK

Hit Count: updated at: Thu, 22 May 2025 03:42:04 GMT